This is the latest recevied weather packets stored in our database for station/object KW4UJ. If no packets are shown the sender has not sent any weather packets the latest 1 day(s).
| Time | Temp. | Humidity | Pressure | Rain* | Wind** | Luminosity | Snow |
|---|---|---|---|---|---|---|---|
| 1778035022 | 22.78° C | 46% | 1010.5 hPa | 0 mm | - | 0 W/m² | - |
| 1778034416 | 22.78° C | 46% | 1010.7 hPa | 0 mm | - | 0 W/m² | - |
| 1778034114 | 22.78° C | 45% | 1010.6 hPa | 0 mm | - | 0 W/m² | - |
| 1778033812 | 22.78° C | 45% | 1010.7 hPa | 0 mm | - | 0 W/m² | - |
| 1778033205 | 23.33° C | 44% | 1010.6 hPa | 0 mm | - | 0 W/m² | - |
| 1778032600 | 23.33° C | 43% | 1010.5 hPa | 0 mm | - | 0 W/m² | - |
| 1778031995 | 23.33° C | 42% | 1010.6 hPa | 0 mm | - | 0 W/m² | - |
| 1778031690 | 23.33° C | 42% | 1010.4 hPa | 0 mm | - | 0 W/m² | - |
| 1778031389 | 23.33° C | 41% | 1010.3 hPa | 0 mm | - | 0 W/m² | - |
| 1778031085 | 23.33° C | 41% | 1010.5 hPa | 0 mm | - | 0 W/m² | - |
| 1778030478 | 23.89° C | 40% | 1010.3 hPa | 0 mm | - | 0 W/m² | - |
| 1778029872 | 23.89° C | 39% | 1010.2 hPa | 0 mm | - | 0 W/m² | - |
| 1778029572 | 23.89° C | 39% | 1010.1 hPa | 0 mm | - | 0 W/m² | - |
| 1778029268 | 24.44° C | 39% | 1010.1 hPa | 0 mm | - | 0 W/m² | - |
| 1778028965 | 24.44° C | 38% | 1010.1 hPa | 0 mm | - | 0 W/m² | - |
| 1778028661 | 24.44° C | 38% | 1010 hPa | 0 mm | - | 0 W/m² | - |
| 1778028358 | 24.44° C | 37% | 1009.8 hPa | 0 mm | - | 0 W/m² | - |
| 1778028055 | 24.44° C | 37% | 1009.9 hPa | 0 mm | - | 0 W/m² | - |
| 1778027448 | 24.44° C | 37% | 1009.5 hPa | 0 mm | - | 0 W/m² | - |
| 1778026840 | 25° C | 35% | 1009.5 hPa | 0 mm | - | 0 W/m² | - |
| 1778025931 | 25° C | 34% | 1009.7 hPa | 0 mm | - | 2 W/m² | - |
| 1778024720 | 25.56° C | 33% | 1009.6 hPa | 0 mm | - | 7 W/m² | - |
| 1778021995 | 26.67° C | 33% | 1009.3 hPa | 0 mm | - | 44 W/m² | - |
| 1778019568 | 26.67° C | 30% | 1009.2 hPa | 0 mm | - | 83 W/m² | - |
| 1778018357 | 27.78° C | 30% | 1009.2 hPa | 0 mm | - | 95 W/m² | - |
* Rain latest hour (hover to see other rain measurements)
** Current wind speed in m/s (hover to see current wind gust speed)